Location: Bottom School (historical)
(37.9078°N, 89.3593°W)
Time: 10:47:13
(UTC+00:00)

Cosmos 1570 Rocket - Pass Details

Date: 03 July 2022
Orbit: 762 x 788 km, 74.1° (Epoch: 14 August)

Event Time Altitude Azimuth Distance (km) Brightness Sun altitude
Exits shadow 10:00:54 - 258° (WSW) 2,628 6.2 -7.2°
Reaches altitude 10° 10:02:21 10° 270° (W) 2,298 6.0 -7.0°
Maximum altitude 10:05:09 15° 303° (WNW) 2,008 6.0 -6.6°
Drops below altitude 10° 10:07:59 10° 336° (NNW) 2,312 6.6 -6.1°
Sets 10:11:32 0° 0° (N) 3,249 7.8 -5.5°
